Sherman-Denison, TX

11:38 PM CDT on October 17, 2017 (GMT -0500)
Sherman-Denison

Weather History for KGYI - January, 2014

Change the Weather History Date:

Saturday, January 4, 2014

  Actual Average (KDFW) Record (KDFW)
Temperature  
Mean Temperature 51 °F -  
Max Temperature 64 °F 54 °F 81 °F (1921)
Min Temperature 38 °F 35 °F 4 °F (1947)
Degree Days  
Heating Degree Days 14    
Growing Degree Days 1 (Base 50)    
Moisture  
Dew Point 38 °F    
Average Humidity 67    
Maximum Humidity 92    
Minimum Humidity 46    
Precipitation  
Precipitation 0.00 in - - ()
Sea Level Pressure  
Sea Level Pressure 29.84 in    
Wind  
Wind Speed 18 mph (South)    
Max Wind Speed 31 mph    
Max Gust Speed 40 mph    
Visibility 10 miles    
Events      
Averages and records for this station are not official NWS values.
T = Trace of Precipitation, MM = Missing Value Source: NWS Daily Summary

Daily Weather History Graph

Daily Weather History Graph

Search for Another Location

Airport or City:

Trip Planner

Search our weather history database for the weather conditions in past years. The results will help you decide how hot, cold, wet, or windy it might be!

Date:

Astronomy

Jan. 04, 2014 Rise Set
Actual Time 7:31 AM CST 5:31 PM CST
Civil Twilight 7:04 AM CST 5:59 PM CST
Nautical Twilight 6:33 AM CST 6:30 PM CST
Astronomical Twilight 6:03 AM CST 7:00 PM CST
Moon 9:49 AM CST (1/4) 9:39 PM CST (1/4)
Length of Visible Light 10h 54m
Length of Day
9h 59m
Waxing Crescent, 15% of the Moon is Illuminated
Jan 4
Waxing Crescent
Jan 7
First Quarter
Jan 15
Full
Jan 23
Last Quarter
Jan 30
New

Hourly Weather History & Observations

Time (CST) Temp. Windchill Dew Point Humidity Pressure Visibility Wind Dir Wind Speed Gust Speed Precip Events Conditions
12:15 AM 40.1 °F 32.4 °F 24.8 °F 54% 30.01 in 10.0 mi South 13.8 mph - N/A   Clear
12:35 AM 39.6 °F 31.3 °F 24.8 °F 56% 30.00 in 10.0 mi South 15.0 mph - N/A   Clear
12:55 AM 39.4 °F 31.1 °F 24.8 °F 56% 29.99 in 10.0 mi South 15.0 mph - N/A   Clear
1:15 AM 40.1 °F 31.3 °F 24.8 °F 54% 29.98 in 10.0 mi South 17.3 mph - N/A   Clear
1:35 AM 41.2 °F 32.7 °F 25.5 °F 54% 29.98 in 10.0 mi South 17.3 mph 23.0 mph N/A   Clear
1:55 AM 42.1 °F 33.6 °F 26.8 °F 55% 29.97 in 10.0 mi South 18.4 mph 25.3 mph N/A   Clear
2:15 AM 41.9 °F 33.1 °F 28.9 °F 60% 29.97 in 10.0 mi South 19.6 mph 26.5 mph N/A   Clear
2:35 AM 41.2 °F 31.9 °F 29.3 °F 63% 29.96 in 10.0 mi South 20.7 mph 28.8 mph N/A   Clear
2:55 AM 40.3 °F 30.4 °F 29.3 °F 65% 29.95 in 10.0 mi South 21.9 mph 27.6 mph N/A   Clear
3:15 AM 40.1 °F 30.2 °F 29.8 °F 67% 29.95 in 10.0 mi South 21.9 mph 26.5 mph N/A   Clear
3:35 AM 39.4 °F 29.0 °F 30.2 °F 70% 29.94 in 10.0 mi South 23.0 mph 27.6 mph N/A   Clear
3:55 AM 39.2 °F 29.0 °F 30.9 °F 72% 29.94 in 10.0 mi South 21.9 mph 27.6 mph N/A   Clear
4:15 AM 39.2 °F 29.0 °F 31.6 °F 74% 29.93 in 10.0 mi South 21.9 mph 26.5 mph N/A   Clear
4:35 AM 38.7 °F 28.6 °F 31.8 °F 76% 29.93 in 10.0 mi South 20.7 mph 29.9 mph N/A   Clear
4:55 AM 38.5 °F 28.1 °F 32.2 °F 78% 29.92 in 10.0 mi South 21.9 mph 27.6 mph N/A   Clear
5:15 AM 38.8 °F 28.5 °F 33.3 °F 80% 29.92 in 10.0 mi South 21.9 mph 29.9 mph N/A   Clear
5:35 AM 38.7 °F 27.8 °F 33.8 °F 83% 29.91 in 10.0 mi South 24.2 mph 32.2 mph N/A   Clear
5:55 AM 38.7 °F 28.0 °F 34.2 °F 84% 29.90 in 10.0 mi South 23.0 mph 32.2 mph N/A   Clear
6:15 AM 38.7 °F 28.0 °F 34.9 °F 86% 29.90 in 10.0 mi South 23.0 mph 31.1 mph N/A   Clear
6:35 AM 38.8 °F 28.5 °F 35.2 °F 87% 29.90 in 10.0 mi South 21.9 mph 28.8 mph N/A   Clear
6:55 AM 38.8 °F 29.1 °F 35.8 °F 89% 29.90 in 10.0 mi South 19.6 mph 26.5 mph N/A   Clear
7:15 AM 39.2 °F 29.0 °F 36.5 °F 90% 29.89 in 10.0 mi South 21.9 mph 26.5 mph N/A   Clear
7:35 AM 39.6 °F 30.6 °F 37.0 °F 91% 29.89 in 10.0 mi South 17.3 mph 26.5 mph N/A   Scattered Clouds
7:55 AM 39.6 °F 30.0 °F 37.4 °F 92% 29.89 in 10.0 mi South 19.6 mph 23.0 mph N/A   Scattered Clouds
8:15 AM 40.3 °F 31.0 °F 37.9 °F 91% 29.89 in 10.0 mi South 19.6 mph 23.0 mph N/A   Scattered Clouds
8:35 AM 41.2 °F 33.0 °F 38.5 °F 90% 29.90 in 10.0 mi South 16.1 mph 24.2 mph N/A   Scattered Clouds
8:55 AM 42.3 °F 33.8 °F 39.2 °F 89% 29.90 in 10.0 mi South 18.4 mph 24.2 mph N/A   Mostly Cloudy
9:15 AM 43.5 °F 35.5 °F 40.1 °F 88% 29.90 in 10.0 mi South 18.4 mph 25.3 mph N/A   Overcast
9:35 AM 45.5 °F 37.8 °F 41.2 °F 85% 29.90 in 10.0 mi South 19.6 mph 26.5 mph N/A   Mostly Cloudy
9:55 AM 47.3 °F - 41.9 °F 82% 29.89 in 10.0 mi South 20.7 mph - N/A   Scattered Clouds
10:15 AM 49.3 °F - 43.0 °F 79% 29.88 in 10.0 mi South 21.9 mph 29.9 mph N/A   Mostly Cloudy
10:35 AM 51.3 °F - 43.7 °F 75% 29.88 in 10.0 mi SSW 26.5 mph 29.9 mph N/A   Mostly Cloudy
10:55 AM 52.5 °F - 44.1 °F 73% 29.86 in 10.0 mi SSW 28.8 mph 38.0 mph N/A   Scattered Clouds
11:15 AM 54.3 °F - 44.6 °F 70% 29.85 in 10.0 mi South 27.6 mph 34.5 mph N/A   Clear
11:35 AM 55.4 °F - 44.6 °F 67% 29.84 in 10.0 mi SSW 27.6 mph 40.3 mph N/A   Clear
11:55 AM 56.5 °F - 45.0 °F 65% 29.82 in 10.0 mi SSW 31.1 mph 39.1 mph N/A   Clear
12:15 PM 57.2 °F - 45.0 °F 64% 29.80 in 10.0 mi SSW 25.3 mph 35.7 mph N/A   Clear
12:35 PM 57.7 °F - 45.3 °F 63% 29.79 in 10.0 mi SSW 26.5 mph 34.5 mph N/A   Clear
12:55 PM 58.6 °F - 45.3 °F 61% 29.77 in 10.0 mi South 27.6 mph 33.4 mph N/A   Clear
1:15 PM 59.7 °F - 45.7 °F 60% 29.76 in 10.0 mi South 26.5 mph 33.4 mph N/A   Clear
1:35 PM 61.0 °F - 45.7 °F 57% 29.75 in 10.0 mi South 21.9 mph 29.9 mph N/A   Clear
1:55 PM 62.6 °F - 45.7 °F 54% 29.74 in 10.0 mi South 25.3 mph 29.9 mph N/A   Clear
2:15 PM 62.6 °F - 45.9 °F 54% 29.74 in 10.0 mi South 20.7 mph 28.8 mph N/A   Clear
2:35 PM 62.8 °F - 46.2 °F 55% 29.73 in 10.0 mi South 21.9 mph 28.8 mph N/A   Clear
2:55 PM 63.5 °F - 46.6 °F 54% 29.74 in 10.0 mi South 19.6 mph 28.8 mph N/A   Clear
3:15 PM 63.7 °F - 46.8 °F 54% 29.74 in 10.0 mi SSW 21.9 mph 32.2 mph N/A   Clear
3:35 PM 64.2 °F - 47.5 °F 55% 29.74 in 10.0 mi South 19.6 mph 27.6 mph N/A   Clear
3:55 PM 63.9 °F - 47.5 °F 55% 29.74 in 10.0 mi South 21.9 mph 27.6 mph N/A   Clear
4:15 PM 64.6 °F - 47.7 °F 54% 29.74 in 10.0 mi South 15.0 mph 25.3 mph N/A   Clear
4:35 PM 63.3 °F - 47.7 °F 57% 29.74 in 10.0 mi South 15.0 mph - N/A   Clear
4:55 PM 62.6 °F - 47.5 °F 58% 29.74 in 10.0 mi South 12.7 mph - N/A   Clear
5:15 PM 60.6 °F - 47.3 °F 61% 29.75 in 10.0 mi South 9.2 mph - N/A   Clear
5:35 PM 59.4 °F - 47.3 °F 64% 29.75 in 10.0 mi South 9.2 mph - N/A   Clear
5:55 PM 57.7 °F - 47.3 °F 68% 29.75 in 10.0 mi South 9.2 mph - N/A   Clear
6:15 PM 58.1 °F - 47.3 °F 67% 29.75 in 10.0 mi South 11.5 mph - N/A   Clear
6:35 PM 58.8 °F - 47.8 °F 67% 29.75 in 10.0 mi SSE 10.4 mph - N/A   Clear
6:55 PM 58.1 °F - 48.2 °F 70% 29.75 in 10.0 mi SSE 13.8 mph - N/A   Clear
7:15 PM 55.2 °F - 47.5 °F 75% 29.77 in 10.0 mi West 8.1 mph - N/A   Clear
7:35 PM 56.7 °F - 46.8 °F 69% 29.78 in 10.0 mi West 8.1 mph - N/A   Clear
7:55 PM 53.6 °F - 37.8 °F 55% 29.77 in 10.0 mi West 4.6 mph - N/A   Clear
8:15 PM 51.1 °F - 36.5 °F 57% 29.79 in 10.0 mi NW 6.9 mph - N/A   Clear
8:35 PM 51.3 °F - 35.2 °F 54% 29.79 in 10.0 mi NNW 5.8 mph - N/A   Clear
8:55 PM 52.0 °F - 33.1 °F 49% 29.78 in 10.0 mi Calm Calm - N/A   Clear
9:15 PM 51.4 °F - 32.2 °F 48% 29.78 in 10.0 mi Calm Calm - N/A   Clear
9:35 PM 52.2 °F - 32.0 °F 46% 29.77 in 10.0 mi Calm Calm - N/A   Clear
9:55 PM 46.8 °F - 33.3 °F 59% 29.78 in 10.0 mi Calm Calm - N/A   Clear
10:15 PM 46.2 °F 44.1 °F 33.6 °F 61% 29.79 in 10.0 mi NW 4.6 mph - N/A   Clear
10:35 PM 47.1 °F - 33.8 °F 60% 29.79 in 10.0 mi NNW 5.8 mph - N/A   Clear
10:55 PM 46.9 °F - 33.1 °F 59% 29.79 in 10.0 mi NNW 5.8 mph - N/A   Clear
11:15 PM 45.9 °F 41.7 °F 32.9 °F 61% 29.79 in 10.0 mi NNW 8.1 mph - N/A   Clear
11:35 PM 43.5 °F 38.3 °F 32.4 °F 65% 29.79 in 10.0 mi NW 9.2 mph - N/A   Clear
11:55 PM 42.1 °F 36.1 °F 32.0 °F 67% 29.80 in 10.0 mi NW 10.4 mph - N/A   Clear